Temp
11 12 12 12 12 13 13 13 13 13 13 13 13 13 13 13 13 13 13 13 13 13 13 13 13 14 14 14 14 14 14 14 15 15 15 15 15 15 15 15 15 15
11 12 12 12 13 13 13 13 13 13 13 13 13 13 13 13 14 14 13 13 13 13 13 13 13 13 14 14 14 14 14 14 14 14 14 15 15 15 15 15 14 14
11 12 12 12 13 13 13 13 13 13 13 13 13 14 14 14 14 14 14 14 14 14 14 14 13 13 13 14 14 14 13 13 14 14 14 14 14 14 14 14 14 14
11 11 11 12 12 12 12 13 13 13 13 13 13 13 14 14 14 14 14 14 14 15 14 14 14 14 14 13 13 13 13 13 13 14 14 14 14 13 13 13 13 14
10 11 11 11 12 12 12 12 13 13 13 13 13 13 13 14 14 14 14 15 15 15 14 14 14 14 14 14 14 13 13 13 14 14 14 14 14 14 14 14 13 13
10 10 11 11 11 12 12 12 12 12 12 13 13 14 14 14 14 14 14 14 14 14 14 14 14 14 14 14 14 14 13 13 14 14 15 15 15 15 15 14 14 14
10 10 10 11 11 11 12 12 12 12 12 12 13 13 13 14 14 14 14 14 14 14 14 14 14 14 14 14 13 13 13 13 14 14 14 15 15 15 15 15 15 15
10 10 10 10 11 11 11 12 12 12 13 13 12 13 13 13 13 13 13 13 13 13 13 14 14 14 14 13 13 13 13 13 13 13 14 14 15 15 15 15 15 15
9 9 10 10 10 11 11 11 11 12 13 13 13 13 13 13 13 13 13 13 13 13 13 13 13 13 13 13 13 13 13 13 13 13 13 14 14 14 15 15 14 14
9 9 9 10 10 11 11 11 11 11 12 13 13 13 13 13 13 13 13 14 13 13 13 13 13 13 12 12 12 12 12 12 12 12 13 13 14 14 14 14 14 14
8 8 9 9 10 10 10 11 11 11 11 12 12 13 13 13 13 13 14 14 14 13 13 13 12 12 12 12 12 12 12 12 12 12 12 13 13 14 14 14 13 13
8 8 8 9 9 9 9 10 10 11 11 11 12 12 13 13 13 13 14 14 14 13 13 13 12 11 11 11 11 11 11 11 11 12 12 12 13 13 13 13 13 13
8 8 8 8 8 9 9 9 9 10 10 11 11 11 12 12 13 13 13 13 13 13 13 13 12 11 11 11 11 11 11 11 11 11 11 12 12 13 13 13 13 13
7 8 8 8 8 8 9 9 9 9 9 10 11 11 11 11 12 12 12 13 13 13 13 12 12 11 11 11 11 11 11 11 11 11 11 11 12 12 12 13 13 13
6 7 7 7 8 8 8 9 9 9 9 9 10 10 10 11 11 11 12 12 12 12 12 11 11 12 12 12 11 11 11 11 11 11 11 11 11 12 12 12 13 13
6 6 6 7 7 8 8 8 8 9 9 9 10 10 10 10 10 11 11 11 11 11 11 11 11 12 12 12 12 12 12 12 11 11 11 11 11 11 11 12 12 12
5 6 6 7 7 7 8 8 8 8 9 9 9 9 9 9 9 10 10 10 10 11 11 12 12 12 12 12 12 11 12 12 12 11 11 11 11 11 11 11 12 12
5 6 6 7 7 7 7 7 8 8 8 8 9 9 9 9 9 9 9 9 9 9 10 10 11 11 11 11 11 11 11 11 12 12 12 11 11 11 11 11 11 12
6 6 6 7 7 7 7 7 7 7 7 8 8 8 8 8 8 9 9 9 9 9 9 9 9 10 10 10 10 10 10 11 11 12 12 12 12 12 11 11 11 11
6 6 6 6 6 6 6 6 7 7 7 7 7 8 8 8 8 8 8 9 9 8 8 8 9 9 9 9 9 9 9 9 10 10 11 12 12 12 12 12 12 12
6 6 6 6 6 6 6 6 6 7 7 7 7 7 7 7 7 8 8 8 8 8 8 8 8 8 9 9 9 8 8 8 9 9 9 10 10 11 11 11 11 11
6 6 6 6 6 6 6 6 6 6 7 7 7 7 7 7 7 7 8 8 8 8 8 8 8 8 8 8 8 8 8 8 8 8 8 9 9 9 10 10 10 10
6 6 6 6 6 6 6 6 6 6 6 6 6 7 7 7 7 7 7 7 7 8 8 8 8 8 8 8 8 8 8 8 8 8 8 8 8 9 9 9 9 9
5 6 6 6 6 6 6 6 6 6 6 6 6 6 6 7 7 7 7 7 7 7 7 7 7 7 7 8 8 8 8 9 9 9 9 9 9 9 9 9 9 9
5 5 5 5 5 5 5 6 6 5 5 5 5 5 6 6 6 6 6 6 6 6 6 6 6 6 7 7 7 7 8 8 8 9 9 9 9 9 9 9 9 9
4 4 5 5 5 5 5 5 5 5 5 5 5 5 5 5 5 6 6 6 6 6 6 6 6 6 6 6 6 7 7 7 7 8 8 9 9 9 9 9 9 9
Height
1509 1509 1509 1509 1509 1509 1508 1508 1507 1507 1507 1508 1508 1508 1508 1509 1510 1511 1513 1514 1515 1517 1518 1520 1521 1523 1524 1526 1528 1529 1530 1531 1531 1532 1532 1533 1534 1535 1536 1537 1539 1540
1508 1508 1508 1508 1508 1507 1507 1506 1506 1506 1506 1506 1506 1506 1506 1507 1508 1508 1510 1512 1514 1516 1517 1518 1519 1520 1522 1523 1524 1526 1527 1528 1529 1529 1530 1531 1532 1533 1534 1536 1537 1538
1508 1507 1507 1507 1506 1506 1506 1505 1505 1505 1505 1504 1504 1504 1504 1505 1504 1505 1507 1509 1511 1514 1516 1516 1517 1518 1519 1520 1521 1522 1523 1525 1526 1527 1528 1529 1530 1531 1532 1534 1535 1536
1508 1507 1507 1506 1506 1505 1505 1505 1504 1504 1504 1503 1503 1503 1503 1503 1503 1503 1505 1506 1508 1510 1512 1513 1514 1515 1515 1517 1518 1519 1520 1522 1525 1525 1526 1527 1529 1530 1530 1531 1532 1533
1508 1507 1507 1506 1506 1505 1505 1504 1504 1503 1503 1502 1502 1502 1502 1502 1502 1502 1503 1504 1506 1507 1508 1509 1511 1512 1512 1513 1514 1516 1517 1520 1523 1523 1523 1525 1526 1527 1527 1528 1529 1530
1509 1508 1507 1507 1506 1505 1505 1504 1504 1503 1502 1502 1501 1501 1501 1501 1501 1501 1502 1502 1503 1504 1505 1506 1508 1509 1510 1511 1511 1513 1514 1517 1519 1520 1520 1522 1523 1524 1524 1524 1525 1526
1508 1508 1507 1507 1506 1505 1505 1504 1504 1503 1503 1502 1501 1500 1500 1500 1500 1500 1500 1500 1501 1502 1503 1504 1505 1506 1507 1508 1509 1510 1511 1514 1516 1517 1517 1519 1520 1521 1521 1521 1522 1522
1507 1507 1507 1506 1506 1505 1505 1504 1503 1503 1503 1502 1501 1500 1499 1499 1499 1499 1499 1499 1499 1500 1501 1502 1502 1504 1505 1506 1507 1508 1509 1510 1512 1513 1514 1515 1517 1517 1518 1518 1518 1518
1506 1506 1506 1505 1505 1504 1504 1504 1503 1502 1502 1502 1501 1500 1499 1499 1498 1499 1498 1498 1499 1499 1499 1500 1500 1501 1502 1503 1504 1505 1506 1507 1509 1510 1511 1512 1513 1514 1515 1515 1515 1515
1505 1505 1504 1504 1503 1503 1503 1503 1502 1502 1501 1501 1501 1500 1500 1499 1498 1498 1498 1498 1498 1498 1498 1498 1499 1499 1500 1500 1501 1502 1503 1504 1506 1506 1507 1508 1509 1510 1511 1512 1511 1511
1504 1504 1503 1502 1502 1501 1501 1501 1501 1501 1501 1500 1500 1499 1499 1499 1498 1498 1498 1498 1497 1497 1497 1497 1498 1498 1499 1499 1499 1499 1500 1501 1502 1503 1503 1504 1505 1506 1507 1507 1508 1507
1503 1503 1502 1501 1501 1500 1500 1499 1499 1499 1499 1499 1499 1498 1498 1498 1498 1498 1497 1497 1497 1496 1496 1496 1496 1497 1497 1497 1497 1497 1497 1497 1498 1498 1499 1500 1501 1502 1503 1504 1504 1504
1502 1502 1501 1500 1500 1500 1500 1499 1498 1498 1498 1498 1497 1497 1497 1497 1497 1497 1496 1496 1495 1495 1495 1495 1495 1495 1496 1495 1495 1494 1494 1494 1494 1495 1496 1497 1497 1498 1499 1500 1501 1502
1501 1500 1500 1500 1499 1499 1499 1498 1498 1497 1497 1496 1496 1495 1495 1495 1495 1495 1495 1494 1494 1494 1493 1493 1493 1493 1493 1493 1493 1492 1492 1492 1492 1493 1493 1494 1494 1495 1496 1497 1498 1499
1500 1499 1499 1499 1499 1499 1498 1497 1497 1497 1496 1495 1495 1494 1494 1493 1493 1493 1493 1493 1492 1492 1492 1492 1491 1491 1491 1490 1490 1490 1490 1490 1490 1491 1491 1491 1491 1492 1492 1493 1494 1495
1500 1499 1499 1499 1499 1498 1497 1497 1496 1495 1495 1494 1493 1493 1492 1492 1491 1491 1491 1491 1490 1490 1490 1489 1489 1489 1488 1488 1488 1487 1487 1488 1488 1488 1489 1489 1489 1489 1489 1490 1490 1491
1501 1500 1500 1499 1498 1498 1497 1496 1495 1494 1494 1493 1492 1491 1491 1490 1489 1489 1489 1488 1488 1488 1487 1487 1487 1486 1486 1486 1486 1486 1486 1486 1486 1486 1486 1486 1487 1487 1487 1487 1487 1487
1501 1500 1500 1499 1498 1497 1496 1496 1495 1494 1493 1492 1491 1490 1490 1489 1488 1488 1487 1487 1486 1486 1485 1485 1484 1484 1484 1484 1484 1484 1484 1484 1484 1484 1483 1484 1484 1484 1484 1484 1484 1484
1501 1500 1500 1499 1498 1497 1496 1496 1495 1494 1493 1492 1491 1490 1489 1488 1487 1487 1486 1486 1485 1485 1484 1483 1482 1482 1482 1482 1481 1481 1481 1481 1481 1481 1481 1481 1481 1481 1481 1481 1481 1481
1501 1500 1499 1498 1497 1496 1496 1495 1494 1493 1492 1491 1491 1490 1490 1488 1487 1486 1486 1485 1484 1483 1483 1482 1481 1480 1480 1479 1479 1479 1479 1478 1478 1478 1477 1477 1477 1477 1477 1477 1477 1477
1501 1500 1499 1498 1497 1496 1495 1494 1494 1493 1492 1491 1491 1490 1489 1488 1487 1486 1485 1484 1483 1482 1481 1481 1480 1479 1478 1478 1477 1477 1476 1476 1475 1475 1475 1474 1474 1474 1473 1473 1474 1474
1501 1500 1498 1498 1497 1496 1495 1494 1493 1493 1492 1491 1491 1490 1489 1488 1486 1486 1484 1484 1483 1482 1480 1480 1479 1478 1477 1476 1476 1475 1474 1474 1473 1473 1472 1471 1471 1471 1470 1470 1470 1470
1500 1499 1498 1497 1496 1495 1494 1494 1493 1492 1492 1491 1490 1489 1488 1487 1486 1485 1483 1483 1482 1481 1480 1478 1477 1477 1476 1475 1474 1473 1472 1471 1471 1470 1470 1469 1469 1468 1468 1468 1468 1467
1500 1499 1498 1497 1496 1495 1494 1493 1493 1492 1491 1490 1489 1488 1487 1486 1485 1484 1483 1482 1481 1479 1478 1477 1476 1475 1474 1472 1471 1470 1469 1469 1468 1467 1467 1466 1466 1466 1466 1465 1465 1465
1501 1499 1498 1497 1496 1495 1494 1493 1493 1492 1491 1490 1489 1488 1487 1486 1485 1484 1482 1481 1480 1479 1478 1477 1475 1474 1472 1471 1469 1468 1467 1466 1465 1464 1463 1462 1462 1462 1462 1462 1462 1462
1501 1500 1498 1497 1496 1495 1494 1493 1492 1492 1491 1490 1489 1488 1486 1486 1485 1484 1482 1481 1480 1478 1477 1476 1475 1473 1471 1470 1468 1467 1465 1464 1463 1461 1460 1459 1458 1458 1457 1457 1457 1457
Wind_Speed
9 12 13 13 14 14 12 12 13 12 11 13 17 20 21 22 24 24 23 23 23 24 24 24 24 25 25 25 25 25 25 26 24 22 22 23 24 24 25 27 29 31
5 6 8 11 14 14 12 12 12 11 10 10 13 17 19 20 23 25 26 26 25 25 24 24 24 26 27 26 25 24 24 26 25 24 24 24 24 25 26 26 28 30
5 4 4 6 9 11 11 11 11 11 11 11 11 13 16 17 20 23 26 27 28 28 28 28 27 27 28 28 27 26 26 26 25 25 26 25 25 27 28 28 28 28
6 5 5 4 3 4 6 7 10 11 11 12 11 12 13 15 17 22 25 27 29 30 31 30 30 30 30 29 29 28 27 25 24 25 26 26 26 27 28 28 27 27
7 7 7 7 7 7 7 6 7 9 11 12 12 12 12 13 15 19 22 25 28 29 30 30 30 31 30 30 30 29 26 22 21 25 26 25 25 27 29 29 27 27
8 7 7 8 9 10 9 9 8 8 8 10 11 12 12 12 12 15 19 22 24 25 25 26 28 29 30 30 30 29 26 21 20 24 26 26 26 27 30 30 29 29
10 10 9 9 9 10 11 11 10 9 8 8 8 10 12 12 10 12 15 19 22 22 22 22 25 26 27 28 28 27 25 22 20 22 25 27 27 28 30 31 31 32
12 12 12 12 11 11 11 12 12 12 10 8 6 7 10 10 9 9 12 15 18 20 20 21 22 24 24 24 23 23 23 22 21 22 23 25 28 30 31 32 33 35
12 13 14 15 16 16 15 14 14 14 12 10 6 5 7 8 8 8 10 12 14 16 18 19 20 22 23 23 22 22 22 22 22 22 23 25 27 30 33 35 37 38
12 13 14 15 16 18 18 18 16 14 14 13 10 7 6 7 8 8 9 11 12 14 15 15 16 17 18 19 20 20 21 22 22 24 25 27 28 30 32 35 37 39
11 12 13 13 13 15 16 19 19 17 16 15 13 11 9 8 9 9 10 11 12 13 13 12 11 11 14 15 15 16 18 19 20 23 26 29 30 31 33 34 36 38
11 11 11 11 11 12 12 14 16 17 16 15 14 13 12 11 11 11 12 12 13 14 13 11 9 9 11 13 14 14 16 17 19 21 24 28 30 32 32 32 33 34
12 11 11 10 10 11 11 12 12 12 12 13 14 14 13 13 13 13 13 13 14 14 14 12 10 9 10 12 14 15 17 18 19 20 22 25 28 30 29 28 27 28
11 11 11 10 9 9 11 12 12 11 11 11 12 13 14 14 14 14 14 13 13 13 14 13 12 11 11 12 14 15 17 18 18 18 20 22 24 27 26 25 26 26
10 10 10 9 9 9 10 11 12 12 12 12 12 13 13 14 14 15 15 15 14 13 12 12 12 13 14 15 16 17 17 18 18 17 18 19 21 24 25 25 25 24
9 8 8 8 8 9 9 10 11 12 13 13 13 14 14 13 13 14 15 16 15 15 14 14 15 16 17 17 18 19 19 19 19 19 18 18 18 20 23 25 26 26
8 8 8 7 7 8 9 10 10 11 12 13 13 13 13 13 13 13 13 13 14 15 17 18 19 19 19 20 20 21 21 21 21 21 21 21 21 21 21 22 22 23
9 9 9 9 9 9 10 11 12 12 12 12 12 12 11 11 12 12 12 12 12 14 16 18 19 20 21 21 21 22 22 22 22 23 23 23 23 24 25 25 24 23
11 10 10 10 10 11 11 12 13 14 13 12 12 12 12 12 12 11 11 11 11 13 14 16 18 20 21 21 22 22 22 22 23 24 25 24 24 24 26 28 29 29
12 12 11 11 11 11 11 12 13 13 13 13 13 13 13 13 12 12 11 11 12 13 14 15 17 19 20 21 23 23 23 23 23 24 24 24 24 24 24 26 28 29
12 12 13 13 12 12 12 13 13 13 13 14 15 15 15 15 14 13 12 12 12 13 15 16 16 17 19 20 21 23 24 24 24 24 23 24 24 25 25 25 26 28
12 12 12 13 13 13 13 13 13 13 14 15 16 16 16 16 15 14 13 13 12 13 14 16 18 19 20 20 20 22 23 23 23 23 23 24 25 26 26 25 25 26
14 13 13 13 13 14 14 14 14 14 15 15 15 16 16 16 16 16 15 15 14 15 15 17 19 21 21 20 21 23 24 24 24 24 24 24 24 25 26 27 26 26
15 14 13 13 13 13 14 15 15 16 16 16 16 16 16 16 16 16 16 16 15 16 16 16 17 19 20 21 22 23 24 24 25 25 25 25 25 25 26 26 27 26
16 14 13 13 13 13 13 14 14 15 16 16 16 16 16 15 15 14 15 15 15 15 15 15 15 16 17 19 20 20 21 22 23 24 25 26 26 27 27 27 27 27
16 16 15 14 14 14 14 15 15 15 15 15 16 16 15 15 15 14 14 14 14 15 15 15 16 16 16 17 18 19 19 20 21 23 24 25 26 26 27 27 27 27
Wind_Direction
293 280 272 264 265 274 280 280 282 285 281 270 265 265 264 264 261 257 255 254 254 254 256 258 259 257 255 256 263 266 263 262 263 261 256 254 255 256 256 254 252 253
332 300 278 266 264 270 274 276 280 287 290 280 270 267 268 267 263 260 257 256 257 257 259 261 262 259 256 255 259 264 263 260 261 263 263 261 260 259 260 258 256 255
20 1 312 274 266 272 279 278 282 287 288 286 280 275 272 265 257 255 257 259 258 255 255 258 261 262 261 260 260 262 262 258 257 262 266 267 266 264 263 263 261 260
21 25 23 13 343 322 313 295 287 283 282 286 285 279 275 266 257 253 253 257 258 256 254 256 258 259 260 262 264 263 264 263 259 262 267 270 270 269 268 267 266 265
13 14 11 10 10 9 6 349 319 294 283 281 281 282 278 271 264 257 252 253 256 256 254 253 253 253 255 260 264 265 267 267 260 258 261 264 266 264 265 267 269 269
358 2 4 2 357 354 354 354 349 335 311 290 281 281 278 273 270 263 256 252 251 252 252 249 248 248 251 257 264 267 267 265 260 256 257 260 261 258 258 263 268 270
331 335 342 348 351 349 345 342 339 338 338 323 297 282 277 275 274 269 260 251 246 245 245 245 246 247 250 255 261 265 266 265 262 259 258 258 260 259 259 263 267 270
320 320 321 322 325 330 334 338 334 328 329 334 323 298 285 281 274 265 257 250 243 239 238 239 243 247 249 251 255 259 262 263 261 260 259 257 257 257 258 261 267 271
320 314 312 311 311 312 314 322 329 327 319 314 316 313 301 291 279 262 255 254 250 244 240 239 240 243 246 249 251 253 256 258 258 257 256 256 256 256 257 260 265 269
324 318 313 309 306 304 303 305 313 322 320 309 298 293 291 289 285 273 262 260 259 256 254 252 250 250 253 257 257 256 258 258 257 256 254 253 253 254 256 258 262 266
329 328 324 318 311 302 296 293 293 300 309 307 295 284 274 271 277 278 272 267 264 265 265 265 268 266 263 266 268 267 267 265 263 261 259 256 253 252 254 256 260 263
325 328 329 331 330 320 307 298 291 290 296 298 293 285 274 264 265 269 272 272 271 271 270 269 276 279 275 275 276 275 274 272 269 267 264 260 257 255 256 259 262 263
312 316 319 325 331 331 325 318 310 301 296 295 293 289 282 272 266 264 265 268 272 274 273 270 270 276 280 280 280 280 278 274 272 271 269 266 261 259 260 263 266 266
308 308 311 313 314 318 318 314 311 306 300 298 296 293 288 281 275 272 270 268 269 271 274 276 277 278 280 280 280 281 281 280 278 277 277 275 269 264 263 265 268 270
326 317 315 314 308 305 306 306 305 305 305 304 301 299 295 286 279 276 275 274 274 275 277 280 282 281 280 279 277 276 276 277 277 277 280 284 281 272 267 264 265 267
348 337 326 316 312 310 309 309 310 310 312 314 312 309 305 298 290 280 276 275 275 276 277 277 276 275 274 274 275 276 276 276 275 271 268 272 278 278 274 271 269 268
351 346 337 326 324 322 318 318 319 320 322 322 319 315 311 309 306 298 289 283 277 274 272 272 272 274 275 278 280 283 284 285 284 280 273 267 265 267 271 274 274 274
349 341 334 329 329 331 329 328 328 329 330 328 325 323 323 321 316 311 308 303 295 286 279 277 276 275 277 279 282 285 287 288 288 288 286 280 272 267 266 268 268 268
357 348 337 330 329 332 333 332 332 335 337 339 340 339 337 332 326 322 320 315 310 304 298 293 290 288 288 287 287 288 290 290 289 288 288 288 285 279 274 271 270 269
3 2 358 351 345 340 337 337 338 340 342 343 343 342 340 340 339 337 332 324 318 315 311 307 302 299 298 296 294 294 294 294 293 291 289 288 287 286 282 279 276 275
360 1 2 1 358 352 346 342 340 340 341 340 340 339 339 342 343 343 342 336 328 322 317 315 313 309 306 303 300 298 297 296 296 295 294 292 289 288 286 284 282 279
1 358 356 356 356 354 350 346 342 339 340 340 339 338 338 337 336 336 338 338 333 328 323 320 317 315 314 312 309 306 304 304 303 300 298 296 295 294 293 292 291 288
5 1 356 352 351 351 349 349 348 345 344 344 343 343 342 340 337 334 333 331 328 325 321 318 315 313 313 314 313 311 309 308 307 306 303 300 299 298 298 299 299 297
13 9 3 357 352 351 350 350 350 348 347 347 346 346 346 346 345 341 337 334 331 328 325 322 318 315 314 314 312 309 307 305 303 302 300 299 297 296 296 296 297 296
21 19 15 8 1 356 353 350 350 348 346 345 344 343 345 348 348 346 342 339 337 336 334 333 330 327 323 321 318 316 314 310 306 302 300 298 296 294 292 291 290 290
19 21 20 16 11 6 1 356 353 349 345 342 340 340 341 342 343 343 343 341 339 338 337 337 337 337 335 331 328 326 324 321 317 312 308 305 304 301 299 295 292 289